Flag for Greece Weather past 2 weeks in Santorini, Greece

Now
75 °F

Sunny.


Feels Like: 77 °F
Forecast: 73 / 76 °F
Wind: 24 mph from Northwest

Location: Santorini Island

Current Time: Jul 4, 2015 at 9:15:10 AM

Latest Report: Jul 4, 2015 at 8:50 AM


Visibility: 10 mi

Pressure: 30.01 "Hg

Humidity: 65%

Dew point: 63 °F

Location of SantoriniLocation

Historic Weather in Santorini — Graph

°F

Santorini temperature yesterday

Maximum temperature yesterday: 82 °F (at 12:50 PM)
Minimum temperature yesterday: 73 °F (at 2:50 AM)
Average temperature yesterday: 78 °F

Past Weeks' High & Low Weather Summary

 TemperatureHumidityPressure
High82 °F (Jun 20, 2:20 PM)94% (Jun 22, 3:20 AM)30.04 "Hg (Jun 22, 3:20 AM)
Low66 °F (Jun 23, 3:20 AM)37% (Jun 20, 11:50 AM)29.68 "Hg (Jun 19, 7:20 AM)
Average75 °F62%29.89 "Hg
* Reported Jun 19 7:20 AM — Jul 4 7:50 AM, Santorini, Weather by CustomWeather, © 2015

Note: Actual official high and low records may vary slightly from our data, if they occured in-between our weather recording intervals... More about our weather records

Advertising

Santorini weather history for previous 24 hours

 ConditionsComfort  
Time TempWeatherWind HumidityBarometerVisibility
7:50 AM
Sat, Jul 4
73 °FSunny.25 mph69%29.98 "Hg10 mi
7:20 AM73 °FSunny.23 mph69%29.98 "Hg10 mi
6:50 AM72 °FClear.22 mph73%29.98 "Hg10 mi
6:20 AM72 °FClear.23 mph73%29.98 "Hg10 mi
5:50 AM73 °FClear.22 mph69%29.98 "Hg10 mi
5:20 AM73 °FClear.21 mph65%29.98 "Hg10 mi
4:50 AM73 °FClear.22 mph65%29.98 "Hg10 mi
4:20 AM73 °FClear.16 mph69%29.98 "Hg10 mi
3:50 AM73 °FClear.17 mph69%29.98 "Hg10 mi
3:20 AM73 °FClear.20 mph74%29.98 "Hg10 mi
2:50 AM73 °FClear.21 mph74%30.01 "Hg10 mi
2:20 AM75 °FClear.21 mph65%30.01 "Hg10 mi
1:50 AM75 °FClear.16 mph65%30.01 "Hg10 mi
1:20 AM75 °FClear.18 mph61%30.01 "Hg10 mi
12:50 AM75 °FClear.20 mph57%30.01 "Hg10 mi
12:20 AM75 °FClear.12 mph57%30.04 "Hg10 mi
11:50 PM
Fri, Jul 3
75 °FClear.13 mph61%30.04 "Hg10 mi
11:20 PM75 °FClear.10 mph61%30.04 "Hg10 mi
10:50 PM75 °FClear.13 mph61%30.04 "Hg10 mi
10:20 PM75 °FClear.15 mph65%30.01 "Hg10 mi
9:50 PM75 °FClear.15 mph65%30.01 "Hg10 mi
9:20 PM75 °FSunny.17 mph61%30.01 "Hg10 mi
8:50 PM77 °FSunny.20 mph61%30.01 "Hg10 mi
8:20 PM77 °FSunny.20 mph61%30.01 "Hg10 mi
7:50 PM77 °FSunny.22 mph61%30.01 "Hg10 mi
7:20 PM79 °FSunny.18 mph58%30.01 "Hg10 mi
6:50 PM79 °FSunny.18 mph58%30.01 "Hg10 mi
6:20 PM81 °FSunny.22 mph54%30.01 "Hg10 mi
5:50 PM81 °FSunny.22 mph54%30.01 "Hg10 mi
5:20 PM81 °FSunny.22 mph51%30.01 "Hg10 mi
4:50 PM82 °FSunny.22 mph48%30.01 "Hg10 mi
4:20 PM82 °FSunny.23 mph48%30.01 "Hg10 mi
3:50 PM82 °FSunny.22 mph48%30.01 "Hg10 mi
3:20 PM82 °FSunny.21 mph48%30.01 "Hg10 mi
2:50 PM82 °FSunny.23 mph48%30.01 "Hg10 mi
2:20 PM82 °FSunny.23 mph51%30.01 "Hg10 mi
1:50 PM82 °FSunny.20 mph48%30.01 "Hg10 mi
1:20 PM82 °FSunny.16 mph48%30.01 "Hg10 mi
12:50 PM82 °FSunny.21 mph45%30.01 "Hg10 mi
12:20 PM81 °FSunny.21 mph51%30.01 "Hg10 mi
11:50 AM81 °FSunny.21 mph51%30.01 "Hg10 mi
11:20 AM81 °FSunny.20 mph51%30.01 "Hg10 mi
10:50 AM79 °FSunny.20 mph54%30.01 "Hg10 mi
10:20 AM79 °FSunny.18 mph58%29.98 "Hg10 mi
9:50 AM79 °FSunny.21 mph58%29.98 "Hg10 mi
9:20 AM79 °FSunny.26 mph51%29.98 "Hg10 mi
Weather by CustomWeather, © 2015

See weather overviewHow to use our weather pages